Time,TemperatureF,DewpointF,PressureIn,WindDirection,WindDirectionDegrees,WindSpeedMPH,WindSpeedGustMPH,Humidity,HourlyPrecipIn,Conditions,Clouds,dailyrainin,SoftwareType,DateUTC
2013-01-01 00:04:00,28.5,24.8,29.77,SW,233,0.0,0.0,86,0.00,,,0.00,WUHU216DAVISWMX,2013-01-01 05:04:00,
2013-01-01 00:09:00,28.5,24.8,29.77,SW,232,0.0,0.0,86,0.00,,,0.00,WUHU216DAVISWMX,2013-01-01 05:09:00,
2013-01-01 00:14:00,28.9,25.2,29.76,WSW,241,2.0,2.0,86,0.00,,,0.00,WUHU216DAVISWMX,2013-01-01 05:14:00,
2013-01-01 00:19:00,28.9,24.9,29.76,SW,223,0.0,4.0,85,0.00,,,0.00,WUHU216DAVISWMX,2013-01-01 05:19:00,
2013-01-01 00:24:00,29.2,24.9,29.76,WSW,248,1.0,4.0,84,0.00,,,0.00,WUHU216DAVISWMX,2013-01-01 05:24:00,
2013-01-01 00:29:00,29.5,25.0,29.76,WSW,242,0.0,3.0,83,0.00,,,0.00,WUHU216DAVISWMX,2013-01-01 05:29:00,
2013-01-01 00:34:00,29.5,25.2,29.76,West,272,1.0,3.0,84,0.00,,,0.00,WUHU216DAVISWMX,2013-01-01 05:34:00,
2013-01-01 00:39:00,29.7,25.2,29.75,West,281,0.0,2.0,83,0.00,,,0.00,WUHU216DAVISWMX,2013-01-01 05:39:00,
2013-01-01 00:44:00,29.8,25.3,29.75,West,281,0.0,2.0,83,0.00,,,0.00,WUHU216DAVISWMX,2013-01-01 05:44:00,
2013-01-01 00:49:00,29.9,25.4,29.75,WSW,246,0.0,3.0,83,0.00,,,0.00,WUHU216DAVISWMX,2013-01-01 05:49:00,
2013-01-01 00:54:00,29.9,25.6,29.75,WSW,246,0.0,3.0,84,0.00,,,0.00,WUHU216DAVISWMX,2013-01-01 05:54:00,
2013-01-01 00:59:00,30.0,25.4,29.75,WSW,252,0.0,1.0,83,0.00,,,0.00,WUHU216DAVISWMX,2013-01-01 05:59:00,
2013-01-01 01:04:00,30.0,25.4,29.75,WSW,256,2.0,2.0,83,0.00,,,0.00,WUHU216DAVISWMX,2013-01-01 06:04:00,
2013-01-01 01:09:00,30.1,25.5,29.76,WSW,256,0.0,2.0,83,0.00,,,0.00,WUHU216DAVISWMX,2013-01-01 06:09:00,
2013-01-01 01:14:00,30.3,25.7,29.75,SW,234,0.0,2.0,83,0.00,,,0.00,WUHU216DAVISWMX,2013-01-01 06:14:00,
2013-01-01 01:19:00,30.3,25.7,29.75,SW,235,1.0,2.0,83,0.00,,,0.00,WUHU216DAVISWMX,2013-01-01 06:19:00,
2013-01-01 01:24:00,30.4,25.6,29.75,WSW,238,0.0,2.0,82,0.00,,,0.00,WUHU216DAVISWMX,2013-01-01 06:24:00,
2013-01-01 01:29:00,30.5,25.9,29.75,WSW,238,0.0,2.0,83,0.00,,,0.00,WUHU216DAVISWMX,2013-01-01 06:29:00,
2013-01-01 01:34:00,30.5,25.9,29.75,WSW,238,0.0,0.0,83,0.00,,,0.00,WUHU216DAVISWMX,2013-01-01 06:34:00,
2013-01-01 01:39:00,30.5,25.7,29.76,WSW,238,0.0,1.0,82,0.00,,,0.00,WUHU216DAVISWMX,2013-01-01 06:39:00,
2013-01-01 01:44:00,30.6,26.0,29.76,WSW,238,0.0,1.0,83,0.00,,,0.00,WUHU216DAVISWMX,2013-01-01 06:44:00,
2013-01-01 01:49:00,30.7,25.8,29.76,WSW,238,0.0,0.0,82,0.00,,,0.00,WUHU216DAVISWMX,2013-01-01 06:49:00,
2013-01-01 01:54:00,30.7,25.8,29.76,WSW,238,0.0,0.0,82,0.00,,,0.00,WUHU216DAVISWMX,2013-01-01 06:54:00,
2013-01-01 01:59:00,30.7,25.8,29.76,WSW,238,0.0,1.0,82,0.00,,,0.00,WUHU216DAVISWMX,2013-01-01 06:59:00,
2013-01-01 02:04:00,30.8,25.9,29.76,WSW,238,0.0,1.0,82,0.00,,,0.00,WUHU216DAVISWMX,2013-01-01 07:04:00,
2013-01-01 02:09:00,30.8,25.9,29.75,West,260,0.0,3.0,82,0.00,,,0.00,WUHU216DAVISWMX,2013-01-01 07:09:00,
2013-01-01 02:14:00,30.9,26.0,29.75,SW,222,0.0,3.0,82,0.00,,,0.00,WUHU216DAVISWMX,2013-01-01 07:14:00,
2013-01-01 02:19:00,31.0,26.1,29.75,SW,221,0.0,3.0,82,0.00,,,0.00,WUHU216DAVISWMX,2013-01-01 07:19:00,
2013-01-01 02:24:00,31.1,26.2,29.74,SW,221,0.0,0.0,82,0.00,,,0.00,WUHU216DAVISWMX,2013-01-01 07:24:00,
2013-01-01 02:29:00,31.1,26.2,29.75,SW,221,0.0,0.0,82,0.00,,,0.00,WUHU216DAVISWMX,2013-01-01 07:29:00,
2013-01-01 02:34:00,31.1,26.5,29.75,SW,236,1.0,2.0,83,0.00,,,0.00,WUHU216DAVISWMX,2013-01-01 07:34:00,
2013-01-01 02:39:00,31.1,26.5,29.74,SW,236,0.0,2.0,83,0.00,,,0.00,WUHU216DAVISWMX,2013-01-01 07:39:00,
2013-01-01 02:44:00,31.1,26.5,29.74,SW,236,0.0,0.0,83,0.00,,,0.00,WUHU216DAVISWMX,2013-01-01 07:44:00,
2013-01-01 02:49:00,31.1,26.2,29.74,WSW,237,0.0,0.0,82,0.00,,,0.00,WUHU216DAVISWMX,2013-01-01 07:49:00,
2013-01-01 02:54:00,31.1,26.5,29.74,WSW,237,0.0,0.0,83,0.00,,,0.00,WUHU216DAVISWMX,2013-01-01 07:54:00,
2013-01-01 02:59:00,31.0,26.4,29.74,SW,236,0.0,0.0,83,0.00,,,0.00,WUHU216DAVISWMX,2013-01-01 07:59:00,
2013-01-01 03:04:00,31.0,26.4,29.74,North,355,0.0,0.0,83,0.00,,,0.00,WUHU216DAVISWMX,2013-01-01 08:04:00,
2013-01-01 03:09:00,31.0,26.7,29.74,North,355,0.0,0.0,84,0.00,,,0.00,WUHU216DAVISWMX,2013-01-01 08:09:00,
2013-01-01 03:14:00,31.0,26.7,29.74,North,355,0.0,0.0,84,0.00,,,0.00,WUHU216DAVISWMX,2013-01-01 08:14:00,
2013-01-01 03:19:00,30.9,26.9,29.74,North,355,0.0,0.0,85,0.00,,,0.00,WUHU216DAVISWMX,2013-01-01 08:19:00,
2013-01-01 03:24:00,30.9,26.9,29.74,North,355,0.0,0.0,85,0.00,,,0.00,WUHU216DAVISWMX,2013-01-01 08:24:00,
2013-01-01 03:29:00,31.0,27.0,29.74,North,355,0.0,0.0,85,0.00,,,0.00,WUHU216DAVISWMX,2013-01-01 08:29:00,
2013-01-01 03:34:00,31.0,27.0,29.74,North,355,0.0,0.0,85,0.00,,,0.00,WUHU216DAVISWMX,2013-01-01 08:34:00,
2013-01-01 03:39:00,31.0,27.3,29.73,North,355,0.0,0.0,86,0.00,,,0.00,WUHU216DAVISWMX,2013-01-01 08:39:00,
2013-01-01 03:44:00,31.1,27.4,29.73,NNW,346,0.0,1.0,86,0.00,,,0.00,WUHU216DAVISWMX,2013-01-01 08:44:00,
2013-01-01 03:49:00,31.1,27.4,29.73,NNW,345,0.0,1.0,86,0.00,,,0.00,WUHU216DAVISWMX,2013-01-01 08:49:00,
2013-01-01 03:54:00,31.2,27.2,29.72,NNW,345,0.0,0.0,85,0.00,,,0.00,WUHU216DAVISWMX,2013-01-01 08:54:00,
2013-01-01 03:59:00,31.2,27.5,29.72,NNW,345,0.0,0.0,86,0.00,,,0.00,WUHU216DAVISWMX,2013-01-01 08:59:00,
2013-01-01 04:04:00,31.2,27.5,29.72,NNW,345,0.0,0.0,86,0.00,,,0.00,WUHU216DAVISWMX,2013-01-01 09:04:00,
2013-01-01 04:09:00,31.2,27.5,29.72,WSW,239,0.0,2.0,86,0.00,,,0.00,WUHU216DAVISWMX,2013-01-01 09:09:00,
2013-01-01 04:14:00,31.3,27.3,29.72,WSW,255,0.0,2.0,85,0.00,,,0.00,WUHU216DAVISWMX,2013-01-01 09:14:00,
2013-01-01 04:19:00,31.3,27.6,29.73,SW,221,0.0,2.0,86,0.00,,,0.00,WUHU216DAVISWMX,2013-01-01 09:19:00,
2013-01-01 04:24:00,31.5,27.5,29.73,SW,221,0.0,1.0,85,0.00,,,0.00,WUHU216DAVISWMX,2013-01-01 09:24:00,
2013-01-01 04:29:00,31.6,27.6,29.73,WSW,238,2.0,2.0,85,0.00,,,0.00,WUHU216DAVISWMX,2013-01-01 09:29:00,
2013-01-01 04:34:00,31.7,27.7,29.73,SW,229,1.0,2.0,85,0.00,,,0.00,WUHU216DAVISWMX,2013-01-01 09:34:00,
2013-01-01 04:39:00,31.7,27.7,29.73,SW,231,1.0,4.0,85,0.00,,,0.00,WUHU216DAVISWMX,2013-01-01 09:39:00,
2013-01-01 04:44:00,31.9,27.6,29.73,WSW,239,0.0,5.0,84,0.00,,,0.00,WUHU216DAVISWMX,2013-01-01 09:44:00,
2013-01-01 04:49:00,32.1,27.8,29.73,WSW,239,0.0,5.0,84,0.00,,,0.00,WUHU216DAVISWMX,2013-01-01 09:49:00,
2013-01-01 04:54:00,32.1,27.8,29.73,SW,231,0.0,5.0,84,0.00,,,0.00,WUHU216DAVISWMX,2013-01-01 09:54:00,
2013-01-01 04:59:00,32.2,27.9,29.73,SW,231,1.0,5.0,84,0.00,,,0.00,WUHU216DAVISWMX,2013-01-01 09:59:00,
2013-01-01 05:04:00,32.3,28.0,29.73,West,276,0.0,6.0,84,0.00,,,0.00,WUHU216DAVISWMX,2013-01-01 10:04:00,
2013-01-01 05:09:00,32.4,28.1,29.73,West,271,0.0,6.0,84,0.00,,,0.00,WUHU216DAVISWMX,2013-01-01 10:09:00,
2013-01-01 05:14:00,32.5,27.9,29.74,WSW,256,2.0,6.0,83,0.00,,,0.00,WUHU216DAVISWMX,2013-01-01 10:14:00,
2013-01-01 05:19:00,32.5,28.2,29.73,West,274,0.0,5.0,84,0.00,,,0.00,WUHU216DAVISWMX,2013-01-01 10:19:00,
2013-01-01 05:24:00,32.5,28.2,29.74,West,279,0.0,5.0,84,0.00,,,0.00,WUHU216DAVISWMX,2013-01-01 10:24:00,
2013-01-01 05:29:00,32.6,28.0,29.74,WNW,296,2.0,4.0,83,0.00,,,0.00,WUHU216DAVISWMX,2013-01-01 10:29:00,
2013-01-01 05:34:00,32.7,28.1,29.74,WNW,296,0.0,4.0,83,0.00,,,0.00,WUHU216DAVISWMX,2013-01-01 10:34:00,
2013-01-01 05:39:00,32.6,28.3,29.74,WNW,296,0.0,2.0,84,0.00,,,0.00,WUHU216DAVISWMX,2013-01-01 10:39:00,
2013-01-01 05:44:00,32.6,28.0,29.74,SW,229,0.0,0.0,83,0.00,,,0.00,WUHU216DAVISWMX,2013-01-01 10:44:00,
2013-01-01 05:49:00,32.7,28.4,29.74,WNW,296,0.0,4.0,84,0.00,,,0.00,WUHU216DAVISWMX,2013-01-01 10:49:00,
2013-01-01 05:54:00,32.7,28.4,29.74,SW,215,3.0,4.0,84,0.00,,,0.00,WUHU216DAVISWMX,2013-01-01 10:54:00,
2013-01-01 05:59:00,33.0,28.4,29.75,WNW,288,0.0,4.0,83,0.00,,,0.00,WUHU216DAVISWMX,2013-01-01 10:59:00,
2013-01-01 06:04:00,33.1,28.5,29.74,WSW,241,2.0,4.0,83,0.00,,,0.00,WUHU216DAVISWMX,2013-01-01 11:04:00,
2013-01-01 06:09:00,33.2,28.6,29.74,WNW,298,0.0,2.0,83,0.00,,,0.00,WUHU216DAVISWMX,2013-01-01 11:09:00,
2013-01-01 06:14:00,33.2,28.6,29.74,SW,235,4.0,7.0,83,0.00,,,0.00,WUHU216DAVISWMX,2013-01-01 11:14:00,
2013-01-01 06:19:00,33.3,28.4,29.74,NNW,329,0.0,7.0,82,0.00,,,0.00,WUHU216DAVISWMX,2013-01-01 11:19:00,
2013-01-01 06:24:00,33.3,28.4,29.74,WNW,288,0.0,4.0,82,0.00,,,0.00,WUHU216DAVISWMX,2013-01-01 11:24:00,
2013-01-01 06:29:00,33.3,28.4,29.75,WNW,299,0.0,3.0,82,0.00,,,0.00,WUHU216DAVISWMX,2013-01-01 11:29:00,
2013-01-01 06:34:00,33.2,28.3,29.75,West,274,1.0,3.0,82,0.00,,,0.00,WUHU216DAVISWMX,2013-01-01 11:34:00,
2013-01-01 06:39:00,33.3,28.4,29.75,NW,308,0.0,3.0,82,0.00,,,0.00,WUHU216DAVISWMX,2013-01-01 11:39:00,
2013-01-01 06:44:00,33.3,27.8,29.75,WSW,239,8.0,8.0,80,0.00,,,0.00,WUHU216DAVISWMX,2013-01-01 11:44:00,
2013-01-01 06:49:00,33.4,27.9,29.75,NW,310,0.0,8.0,80,0.00,,,0.00,WUHU216DAVISWMX,2013-01-01 11:49:00,
2013-01-01 06:54:00,33.3,27.8,29.75,NNW,327,5.0,7.0,80,0.00,,,0.00,WUHU216DAVISWMX,2013-01-01 11:54:00,
2013-01-01 06:59:00,33.4,27.9,29.76,NW,317,1.0,7.0,80,0.00,,,0.00,WUHU216DAVISWMX,2013-01-01 11:59:00,
2013-01-01 07:04:00,33.4,27.9,29.76,NW,326,0.0,4.0,80,0.00,,,0.00,WUHU216DAVISWMX,2013-01-01 12:04:00,
2013-01-01 07:09:00,33.3,27.8,29.76,NW,326,1.0,4.0,80,0.00,,,0.00,WUHU216DAVISWMX,2013-01-01 12:09:00,
2013-01-01 07:15:00,33.4,27.6,29.76,WSW,239,0.0,3.0,79,0.00,,,0.00,WUHU216DAVISWMX,2013-01-01 12:15:00,
2013-01-01 07:20:00,33.4,27.6,29.76,NNW,328,4.0,4.0,79,0.00,,,0.00,WUHU216DAVISWMX,2013-01-01 12:20:00,
2013-01-01 07:25:00,33.4,27.6,29.77,NW,325,0.0,6.0,79,0.00,,,0.00,WUHU216DAVISWMX,2013-01-01 12:25:00,
2013-01-01 07:30:00,33.4,27.3,29.77,NNW,341,1.0,6.0,78,0.00,,,0.00,WUHU216DAVISWMX,2013-01-01 12:30:00,
2013-01-01 07:35:00,33.5,27.4,29.77,NW,315,1.0,4.0,78,0.00,,,0.00,WUHU216DAVISWMX,2013-01-01 12:35:00,
2013-01-01 07:40:00,33.4,27.3,29.77,NNW,332,2.0,2.0,78,0.00,,,0.00,WUHU216DAVISWMX,2013-01-01 12:40:00,
2013-01-01 07:45:00,33.4,27.0,29.77,NNW,330,0.0,3.0,77,0.00,,,0.00,WUHU216DAVISWMX,2013-01-01 12:45:00,
2013-01-01 07:50:00,33.5,27.1,29.77,WNW,298,0.0,5.0,77,0.00,,,0.00,WUHU216DAVISWMX,2013-01-01 12:50:00,
2013-01-01 07:55:00,33.5,26.8,29.77,WNW,298,0.0,5.0,76,0.00,,,0.00,WUHU216DAVISWMX,2013-01-01 12:55:00,
2013-01-01 08:00:00,33.5,27.1,29.77,WNW,298,0.0,1.0,77,0.00,,,0.00,WUHU216DAVISWMX,2013-01-01 13:00:00,
2013-01-01 08:05:00,33.5,26.8,29.78,NW,320,0.0,3.0,76,0.00,,,0.00,WUHU216DAVISWMX,2013-01-01 13:05:00,
2013-01-01 08:10:00,33.4,25.7,29.78,SSW,203,4.0,4.0,73,0.00,,,0.00,WUHU216DAVISWMX,2013-01-01 13:10:00,
2013-01-01 08:15:00,33.5,25.2,29.78,NW,314,1.0,9.0,71,0.00,,,0.00,WUHU216DAVISWMX,2013-01-01 13:15:00,
2013-01-01 08:20:00,33.7,25.0,29.78,WNW,303,2.0,12.0,70,0.00,,,0.00,WUHU216DAVISWMX,2013-01-01 13:20:00,
2013-01-01 08:25:00,33.9,24.2,29.78,NNW,331,4.0,12.0,67,0.00,,,0.00,WUHU216DAVISWMX,2013-01-01 13:25:00,
2013-01-01 08:30:00,34.0,24.3,29.78,NNW,331,0.0,11.0,67,0.00,,,0.00,WUHU216DAVISWMX,2013-01-01 13:30:00,
2013-01-01 08:35:00,34.0,24.3,29.77,NW,322,2.0,10.0,67,0.00,,,0.00,WUHU216DAVISWMX,2013-01-01 13:35:00,
2013-01-01 08:40:00,34.1,24.0,29.77,NNW,342,7.0,11.0,66,0.00,,,0.00,WUHU216DAVISWMX,2013-01-01 13:40:00,
2013-01-01 08:45:00,34.1,23.6,29.78,NNW,337,0.0,12.0,65,0.00,,,0.00,WUHU216DAVISWMX,2013-01-01 13:45:00,
2013-01-01 08:50:00,34.0,23.2,29.77,NNW,327,4.0,12.0,64,0.00,,,0.00,WUHU216DAVISWMX,2013-01-01 13:50:00,
2013-01-01 08:55:00,33.9,23.4,29.78,NW,309,0.0,12.0,65,0.00,,,0.00,WUHU216DAVISWMX,2013-01-01 13:55:00,
2013-01-01 09:00:00,33.6,23.2,29.78,NNW,337,7.0,12.0,65,0.00,,,0.00,WUHU216DAVISWMX,2013-01-01 14:00:00,
2013-01-01 09:05:00,33.4,23.0,29.79,NNW,331,5.0,10.0,65,0.00,,,0.00,WUHU216DAVISWMX,2013-01-01 14:05:00,
2013-01-01 09:10:00,33.2,23.1,29.79,WNW,302,6.0,10.0,66,0.00,,,0.00,WUHU216DAVISWMX,2013-01-01 14:10:00,
2013-01-01 09:15:00,32.7,21.9,29.79,West,280,4.0,15.0,64,0.00,,,0.00,WUHU216DAVISWMX,2013-01-01 14:15:00,
2013-01-01 09:20:00,32.6,21.1,29.79,NW,316,5.0,15.0,62,0.00,,,0.00,WUHU216DAVISWMX,2013-01-01 14:20:00,
2013-01-01 09:25:00,32.8,21.3,29.79,WNW,293,4.0,10.0,62,0.00,,,0.00,WUHU216DAVISWMX,2013-01-01 14:25:00,
2013-01-01 09:30:00,32.8,21.6,29.80,WNW,301,10.0,13.0,63,0.00,,,0.00,WUHU216DAVISWMX,2013-01-01 14:30:00,
2013-01-01 09:35:00,33.0,21.1,29.80,West,264,6.0,14.0,61,0.00,,,0.00,WUHU216DAVISWMX,2013-01-01 14:35:00,
2013-01-01 09:40:00,33.0,21.5,29.81,West,259,5.0,14.0,62,0.00,,,0.00,WUHU216DAVISWMX,2013-01-01 14:40:00,
2013-01-01 09:45:00,33.1,21.5,29.81,WNW,290,6.0,11.0,62,0.00,,,0.00,WUHU216DAVISWMX,2013-01-01 14:45:00,
2013-01-01 09:50:00,33.1,21.2,29.82,SSW,205,7.0,12.0,61,0.00,,,0.00,WUHU216DAVISWMX,2013-01-01 14:50:00,
2013-01-01 09:55:00,33.0,21.1,29.81,WNW,302,4.0,13.0,61,0.00,,,0.00,WUHU216DAVISWMX,2013-01-01 14:55:00,
2013-01-01 10:00:00,33.0,20.7,29.82,NW,325,5.0,14.0,60,0.00,,,0.00,WUHU216DAVISWMX,2013-01-01 15:00:00,
2013-01-01 10:05:00,32.9,21.0,29.82,WSW,242,7.0,14.0,61,0.00,,,0.00,WUHU216DAVISWMX,2013-01-01 15:05:00,
2013-01-01 10:10:00,32.7,20.4,29.82,NW,308,4.0,12.0,60,0.00,,,0.00,WUHU216DAVISWMX,2013-01-01 15:10:00,
2013-01-01 10:15:00,32.6,20.3,29.82,NNW,329,3.0,12.0,60,0.00,,,0.00,WUHU216DAVISWMX,2013-01-01 15:15:00,
2013-01-01 10:20:00,32.5,20.2,29.82,WSW,257,4.0,14.0,60,0.00,,,0.00,WUHU216DAVISWMX,2013-01-01 15:20:00,
2013-01-01 10:25:00,32.5,20.2,29.82,WNW,300,7.0,14.0,60,0.00,,,0.00,WUHU216DAVISWMX,2013-01-01 15:25:00,
2013-01-01 10:30:00,32.4,19.3,29.82,WNW,297,15.0,15.0,58,0.00,,,0.00,WUHU216DAVISWMX,2013-01-01 15:30:00,
2013-01-01 10:35:00,32.3,19.6,29.82,West,278,7.0,15.0,59,0.00,,,0.00,WUHU216DAVISWMX,2013-01-01 15:35:00,
2013-01-01 10:40:00,32.2,19.9,29.82,NNW,344,7.0,12.0,60,0.00,,,0.00,WUHU216DAVISWMX,2013-01-01 15:40:00,
2013-01-01 10:45:00,32.4,19.7,29.81,WSW,254,8.0,12.0,59,0.00,,,0.00,WUHU216DAVISWMX,2013-01-01 15:45:00,
2013-01-01 10:50:00,32.3,19.6,29.81,West,269,9.0,21.0,59,0.00,,,0.00,WUHU216DAVISWMX,2013-01-01 15:50:00,
2013-01-01 10:55:00,32.3,19.6,29.81,NW,311,11.0,21.0,59,0.00,,,0.00,WUHU216DAVISWMX,2013-01-01 15:55:00,
2013-01-01 11:00:00,32.4,18.9,29.81,NNW,330,8.0,13.0,57,0.00,,,0.00,WUHU216DAVISWMX,2013-01-01 16:00:00,
2013-01-01 11:05:00,32.5,19.0,29.80,NNW,331,7.0,13.0,57,0.00,,,0.00,WUHU216DAVISWMX,2013-01-01 16:05:00,
2013-01-01 11:10:00,32.6,19.1,29.80,NW,304,5.0,13.0,57,0.00,,,0.00,WUHU216DAVISWMX,2013-01-01 16:10:00,
2013-01-01 11:15:00,32.6,19.1,29.79,NW,309,4.0,12.0,57,0.00,,,0.00,WUHU216DAVISWMX,2013-01-01 16:15:00,
2013-01-01 11:20:00,32.7,19.2,29.80,WNW,299,7.0,20.0,57,0.00,,,0.00,WUHU216DAVISWMX,2013-01-01 16:20:00,
2013-01-01 11:25:00,32.8,19.7,29.80,West,265,8.0,20.0,58,0.00,,,0.00,WUHU216DAVISWMX,2013-01-01 16:25:00,
2013-01-01 11:30:00,32.9,19.8,29.81,WNW,297,3.0,8.0,58,0.00,,,0.00,WUHU216DAVISWMX,2013-01-01 16:30:00,
2013-01-01 11:35:00,33.1,19.5,29.81,WNW,291,4.0,12.0,57,0.00,,,0.00,WUHU216DAVISWMX,2013-01-01 16:35:00,
2013-01-01 11:40:00,33.1,19.5,29.80,NW,323,4.0,13.0,57,0.00,,,0.00,WUHU216DAVISWMX,2013-01-01 16:40:00,
2013-01-01 11:45:00,33.2,19.2,29.80,NNW,333,7.0,13.0,56,0.00,,,0.00,WUHU216DAVISWMX,2013-01-01 16:45:00,
2013-01-01 11:50:00,33.3,19.7,29.80,WNW,283,5.0,8.0,57,0.00,,,0.00,WUHU216DAVISWMX,2013-01-01 16:50:00,
2013-01-01 11:55:00,33.5,20.7,29.80,NW,313,6.0,8.0,59,0.00,,,0.00,WUHU216DAVISWMX,2013-01-01 16:55:00,
2013-01-01 12:00:00,33.7,20.5,29.80,West,271,11.0,11.0,58,0.00,,,0.00,WUHU216DAVISWMX,2013-01-01 17:00:00,
2013-01-01 12:05:00,33.8,20.2,29.80,NW,308,3.0,13.0,57,0.00,,,0.00,WUHU216DAVISWMX,2013-01-01 17:05:00,
2013-01-01 12:10:00,33.9,19.9,29.79,NW,315,4.0,13.0,56,0.00,,,0.00,WUHU216DAVISWMX,2013-01-01 17:10:00,
2013-01-01 12:15:00,33.8,19.8,29.79,NNW,338,3.0,11.0,56,0.00,,,0.00,WUHU216DAVISWMX,2013-01-01 17:15:00,
2013-01-01 12:20:00,33.7,20.1,29.79,NW,317,5.0,11.0,57,0.00,,,0.00,WUHU216DAVISWMX,2013-01-01 17:20:00,
2013-01-01 12:25:00,33.7,20.5,29.79,NNW,344,3.0,8.0,58,0.00,,,0.00,WUHU216DAVISWMX,2013-01-01 17:25:00,
2013-01-01 12:30:00,33.9,19.9,29.79,NNW,336,8.0,12.0,56,0.00,,,0.00,WUHU216DAVISWMX,2013-01-01 17:30:00,
2013-01-01 12:35:00,34.0,20.4,29.78,NNE,32,0.0,12.0,57,0.00,,,0.00,WUHU216DAVISWMX,2013-01-01 17:35:00,
2013-01-01 12:40:00,34.1,20.1,29.78,NW,314,4.0,8.0,56,0.00,,,0.00,WUHU216DAVISWMX,2013-01-01 17:40:00,
2013-01-01 12:45:00,34.1,20.1,29.78,NNW,346,6.0,11.0,56,0.00,,,0.00,WUHU216DAVISWMX,2013-01-01 17:45:00,
2013-01-01 12:50:00,33.9,19.9,29.78,NNW,327,4.0,11.0,56,0.00,,,0.00,WUHU216DAVISWMX,2013-01-01 17:50:00,
2013-01-01 12:55:00,33.9,20.7,29.78,NNW,341,2.0,11.0,58,0.00,,,0.00,WUHU216DAVISWMX,2013-01-01 17:55:00,
2013-01-01 13:00:00,33.8,19.8,29.78,NW,306,2.0,7.0,56,0.00,,,0.00,WUHU216DAVISWMX,2013-01-01 18:00:00,
2013-01-01 13:06:00,33.6,19.6,29.79,NNW,327,7.0,7.0,56,0.00,,,0.00,WUHU216DAVISWMX,2013-01-01 18:06:00,
2013-01-01 13:11:00,33.5,20.3,29.78,WNW,294,3.0,7.0,58,0.00,,,0.00,WUHU216DAVISWMX,2013-01-01 18:11:00,
2013-01-01 13:16:00,33.7,20.5,29.78,NW,320,1.0,5.0,58,0.00,,,0.00,WUHU216DAVISWMX,2013-01-01 18:16:00,
2013-01-01 13:21:00,33.6,20.0,29.78,WNW,291,3.0,6.0,57,0.00,,,0.00,WUHU216DAVISWMX,2013-01-01 18:21:00,
2013-01-01 13:26:00,33.4,19.0,29.77,North,349,2.0,14.0,55,0.00,,,0.00,WUHU216DAVISWMX,2013-01-01 18:26:00,
2013-01-01 13:31:00,33.2,19.2,29.77,NNW,330,4.0,14.0,56,0.00,,,0.00,WUHU216DAVISWMX,2013-01-01 18:31:00,
2013-01-01 13:36:00,33.1,19.5,29.77,NNW,339,8.0,8.0,57,0.00,,,0.00,WUHU216DAVISWMX,2013-01-01 18:36:00,
2013-01-01 13:41:00,33.1,19.1,29.77,NE,47,0.0,11.0,56,0.00,,,0.00,WUHU216DAVISWMX,2013-01-01 18:41:00,
2013-01-01 13:46:00,33.0,19.4,29.78,NW,324,12.0,12.0,57,0.00,,,0.00,WUHU216DAVISWMX,2013-01-01 18:46:00,
2013-01-01 13:51:00,32.6,18.6,29.78,NNW,335,7.0,12.0,56,0.00,,,0.00,WUHU216DAVISWMX,2013-01-01 18:51:00,
2013-01-01 13:56:00,32.5,19.0,29.78,NNW,331,4.0,9.0,57,0.00,,,0.00,WUHU216DAVISWMX,2013-01-01 18:56:00,
2013-01-01 14:01:00,32.4,18.9,29.77,West,279,2.0,8.0,57,0.00,,,0.00,WUHU216DAVISWMX,2013-01-01 19:01:00,
2013-01-01 14:06:00,32.3,19.2,29.78,NW,326,3.0,8.0,58,0.00,,,0.00,WUHU216DAVISWMX,2013-01-01 19:06:00,
2013-01-01 14:11:00,32.4,18.5,29.78,NW,323,5.0,10.0,56,0.00,,,0.00,WUHU216DAVISWMX,2013-01-01 19:11:00,
2013-01-01 14:16:00,32.3,19.2,29.78,NW,306,5.0,10.0,58,0.00,,,0.00,WUHU216DAVISWMX,2013-01-01 19:16:00,
2013-01-01 14:21:00,32.2,19.1,29.78,WNW,296,1.0,7.0,58,0.00,,,0.00,WUHU216DAVISWMX,2013-01-01 19:21:00,
2013-01-01 14:26:00,32.0,18.9,29.79,NW,305,2.0,7.0,58,0.00,,,0.00,WUHU216DAVISWMX,2013-01-01 19:26:00,
2013-01-01 14:31:00,31.8,18.3,29.79,North,351,2.0,10.0,57,0.00,,,0.00,WUHU216DAVISWMX,2013-01-01 19:31:00,
2013-01-01 14:36:00,31.7,18.2,29.79,NW,312,5.0,11.0,57,0.00,,,0.00,WUHU216DAVISWMX,2013-01-01 19:36:00,
2013-01-01 14:41:00,31.7,18.2,29.79,West,262,4.0,11.0,57,0.00,,,0.00,WUHU216DAVISWMX,2013-01-01 19:41:00,
2013-01-01 14:46:00,31.6,18.1,29.79,NNW,328,3.0,11.0,57,0.00,,,0.00,WUHU216DAVISWMX,2013-01-01 19:46:00,
2013-01-01 14:51:00,31.5,18.9,29.79,NNW,327,2.0,9.0,59,0.00,,,0.00,WUHU216DAVISWMX,2013-01-01 19:51:00,
2013-01-01 14:56:00,31.4,18.8,29.79,North,349,0.0,6.0,59,0.00,,,0.00,WUHU216DAVISWMX,2013-01-01 19:56:00,
2013-01-01 15:01:00,31.2,18.2,29.79,NNW,333,3.0,7.0,58,0.00,,,0.00,WUHU216DAVISWMX,2013-01-01 20:01:00,
2013-01-01 15:06:00,31.1,18.5,29.79,NW,326,4.0,8.0,59,0.00,,,0.00,WUHU216DAVISWMX,2013-01-01 20:06:00,
2013-01-01 15:11:00,31.1,18.5,29.79,NW,320,2.0,8.0,59,0.00,,,0.00,WUHU216DAVISWMX,2013-01-01 20:11:00,
2013-01-01 15:16:00,30.9,17.5,29.79,NNW,334,4.0,10.0,57,0.00,,,0.00,WUHU216DAVISWMX,2013-01-01 20:16:00,
2013-01-01 15:21:00,30.8,17.4,29.79,North,350,5.0,12.0,57,0.00,,,0.00,WUHU216DAVISWMX,2013-01-01 20:21:00,
2013-01-01 15:26:00,30.5,17.9,29.80,NNW,331,1.0,12.0,59,0.00,,,0.00,WUHU216DAVISWMX,2013-01-01 20:26:00,
2013-01-01 15:31:00,30.3,17.3,29.79,WNW,282,2.0,7.0,58,0.00,,,0.00,WUHU216DAVISWMX,2013-01-01 20:31:00,
2013-01-01 15:36:00,30.0,17.4,29.79,NW,326,2.0,7.0,59,0.00,,,0.00,WUHU216DAVISWMX,2013-01-01 20:36:00,
2013-01-01 15:41:00,29.8,17.2,29.79,NW,312,3.0,9.0,59,0.00,,,0.00,WUHU216DAVISWMX,2013-01-01 20:41:00,
2013-01-01 15:46:00,29.5,17.0,29.80,NNW,335,4.0,9.0,59,0.00,,,0.00,WUHU216DAVISWMX,2013-01-01 20:46:00,
2013-01-01 15:51:00,29.3,16.4,29.79,NNW,334,2.0,6.0,58,0.00,,,0.00,WUHU216DAVISWMX,2013-01-01 20:51:00,
2013-01-01 15:56:00,29.1,16.2,29.80,North,354,5.0,8.0,58,0.00,,,0.00,WUHU216DAVISWMX,2013-01-01 20:56:00,
2013-01-01 16:01:00,29.1,16.2,29.81,NNW,335,5.0,8.0,58,0.00,,,0.00,WUHU216DAVISWMX,2013-01-01 21:01:00,
2013-01-01 16:06:00,28.8,15.9,29.81,WNW,301,4.0,8.0,58,0.00,,,0.00,WUHU216DAVISWMX,2013-01-01 21:06:00,
2013-01-01 16:11:00,28.8,15.9,29.81,NNW,338,5.0,6.0,58,0.00,,,0.00,WUHU216DAVISWMX,2013-01-01 21:11:00,
2013-01-01 16:16:00,28.6,15.7,29.81,NNW,328,4.0,6.0,58,0.00,,,0.00,WUHU216DAVISWMX,2013-01-01 21:16:00,
2013-01-01 16:21:00,28.6,15.7,29.81,NW,326,0.0,6.0,58,0.00,,,0.00,WUHU216DAVISWMX,2013-01-01 21:21:00,
2013-01-01 16:26:00,28.4,15.1,29.81,NNW,328,4.0,6.0,57,0.00,,,0.00,WUHU216DAVISWMX,2013-01-01 21:26:00,
2013-01-01 16:31:00,28.3,15.4,29.82,NNW,339,5.0,9.0,58,0.00,,,0.00,WUHU216DAVISWMX,2013-01-01 21:31:00,
2013-01-01 16:36:00,28.2,15.3,29.82,NNW,336,3.0,9.0,58,0.00,,,0.00,WUHU216DAVISWMX,2013-01-01 21:36:00,
2013-01-01 16:41:00,28.1,14.8,29.82,NNW,347,4.0,7.0,57,0.00,,,0.00,WUHU216DAVISWMX,2013-01-01 21:41:00,
2013-01-01 16:46:00,28.0,15.1,29.82,NNW,330,4.0,7.0,58,0.00,,,0.00,WUHU216DAVISWMX,2013-01-01 21:46:00,
2013-01-01 16:51:00,27.8,15.0,29.82,WNW,285,2.0,6.0,58,0.00,,,0.00,WUHU216DAVISWMX,2013-01-01 21:51:00,
2013-01-01 16:56:00,27.8,15.4,29.83,NNW,333,0.0,6.0,59,0.00,,,0.00,WUHU216DAVISWMX,2013-01-01 21:56:00,
2013-01-01 17:01:00,27.7,14.9,29.83,NW,314,2.0,7.0,58,0.00,,,0.00,WUHU216DAVISWMX,2013-01-01 22:01:00,
2013-01-01 17:06:00,27.7,15.3,29.83,NW,314,2.0,7.0,59,0.00,,,0.00,WUHU216DAVISWMX,2013-01-01 22:06:00,
2013-01-01 17:11:00,27.5,15.5,29.83,NNW,330,0.0,4.0,60,0.00,,,0.00,WUHU216DAVISWMX,2013-01-01 22:11:00,
2013-01-01 17:16:00,27.5,15.5,29.84,NW,325,2.0,4.0,60,0.00,,,0.00,WUHU216DAVISWMX,2013-01-01 22:16:00,
2013-01-01 17:21:00,27.4,15.4,29.84,NW,325,0.0,4.0,60,0.00,,,0.00,WUHU216DAVISWMX,2013-01-01 22:21:00,
2013-01-01 17:26:00,27.2,15.6,29.83,NW,325,1.0,3.0,61,0.00,,,0.00,WUHU216DAVISWMX,2013-01-01 22:26:00,
2013-01-01 17:31:00,27.1,15.1,29.84,NNW,327,0.0,6.0,60,0.00,,,0.00,WUHU216DAVISWMX,2013-01-01 22:31:00,
2013-01-01 17:36:00,27.0,15.4,29.84,NNW,330,3.0,6.0,61,0.00,,,0.00,WUHU216DAVISWMX,2013-01-01 22:36:00,
2013-01-01 17:41:00,26.9,15.3,29.84,NNW,329,1.0,4.0,61,0.00,,,0.00,WUHU216DAVISWMX,2013-01-01 22:41:00,
2013-01-01 17:46:00,26.8,15.2,29.85,NNW,329,2.0,3.0,61,0.00,,,0.00,WUHU216DAVISWMX,2013-01-01 22:46:00,
2013-01-01 17:51:00,26.6,15.0,29.85,NNW,336,0.0,4.0,61,0.00,,,0.00,WUHU216DAVISWMX,2013-01-01 22:51:00,
2013-01-01 17:56:00,26.5,15.7,29.86,NNW,336,0.0,4.0,63,0.00,,,0.00,WUHU216DAVISWMX,2013-01-01 22:56:00,
2013-01-01 18:01:00,26.2,15.0,29.87,NNW,335,1.0,4.0,62,0.00,,,0.00,WUHU216DAVISWMX,2013-01-01 23:01:00,
2013-01-01 18:06:00,26.1,15.3,29.86,NNW,335,2.0,4.0,63,0.00,,,0.00,WUHU216DAVISWMX,2013-01-01 23:06:00,
2013-01-01 18:11:00,26.0,15.2,29.87,NNW,333,0.0,7.0,63,0.00,,,0.00,WUHU216DAVISWMX,2013-01-01 23:11:00,
2013-01-01 18:16:00,25.8,15.0,29.87,NNW,333,4.0,7.0,63,0.00,,,0.00,WUHU216DAVISWMX,2013-01-01 23:16:00,
2013-01-01 18:21:00,25.8,15.0,29.87,NW,326,1.0,5.0,63,0.00,,,0.00,WUHU216DAVISWMX,2013-01-01 23:21:00,
2013-01-01 18:26:00,25.6,14.4,29.88,NNW,332,3.0,5.0,62,0.00,,,0.00,WUHU216DAVISWMX,2013-01-01 23:26:00,
2013-01-01 18:31:00,25.5,14.7,29.88,NNW,334,2.0,4.0,63,0.00,,,0.00,WUHU216DAVISWMX,2013-01-01 23:31:00,
2013-01-01 18:36:00,25.3,14.5,29.88,NNW,339,3.0,5.0,63,0.00,,,0.00,WUHU216DAVISWMX,2013-01-01 23:36:00,
2013-01-01 18:41:00,25.1,14.0,29.88,NNW,339,1.0,5.0,62,0.00,,,0.00,WUHU216DAVISWMX,2013-01-01 23:41:00,
2013-01-01 18:46:00,25.1,14.0,29.88,NNW,339,2.0,3.0,62,0.00,,,0.00,WUHU216DAVISWMX,2013-01-01 23:46:00,
2013-01-01 18:51:00,24.8,13.7,29.89,NNW,339,2.0,3.0,62,0.00,,,0.00,WUHU216DAVISWMX,2013-01-01 23:51:00,
2013-01-01 18:56:00,24.7,13.6,29.89,NNW,339,0.0,3.0,62,0.00,,,0.00,WUHU216DAVISWMX,2013-01-01 23:56:00,
2013-01-01 19:01:00,24.6,13.8,29.88,NNW,339,2.0,4.0,63,0.00,,,0.00,WUHU216DAVISWMX,2013-01-02 00:01:00,
2013-01-01 19:06:00,24.4,13.7,29.89,NNW,339,1.0,4.0,63,0.00,,,0.00,WUHU216DAVISWMX,2013-01-02 00:06:00,
2013-01-01 19:11:00,24.2,13.5,29.89,NNW,339,0.0,3.0,63,0.00,,,0.00,WUHU216DAVISWMX,2013-01-02 00:11:00,
2013-01-01 19:16:00,24.2,13.8,29.89,NNW,339,0.0,3.0,64,0.00,,,0.00,WUHU216DAVISWMX,2013-01-02 00:16:00,
2013-01-01 19:21:00,24.0,13.6,29.89,NNW,339,0.0,2.0,64,0.00,,,0.00,WUHU216DAVISWMX,2013-01-02 00:21:00,
2013-01-01 19:26:00,23.9,13.5,29.90,NNW,339,0.0,2.0,64,0.00,,,0.00,WUHU216DAVISWMX,2013-01-02 00:26:00,
2013-01-01 19:31:00,23.9,13.9,29.90,NNW,339,0.0,2.0,65,0.00,,,0.00,WUHU216DAVISWMX,2013-01-02 00:31:00,
2013-01-01 19:36:00,23.7,14.1,29.90,NNW,339,0.0,1.0,66,0.00,,,0.00,WUHU216DAVISWMX,2013-01-02 00:36:00,
2013-01-01 19:41:00,23.5,13.5,29.90,NNW,339,0.0,1.0,65,0.00,,,0.00,WUHU216DAVISWMX,2013-01-02 00:41:00,
2013-01-01 19:46:00,23.2,13.2,29.90,NNW,339,0.0,1.0,65,0.00,,,0.00,WUHU216DAVISWMX,2013-01-02 00:46:00,
2013-01-01 19:51:00,23.1,13.5,29.90,NNW,339,0.0,1.0,66,0.00,,,0.00,WUHU216DAVISWMX,2013-01-02 00:51:00,
2013-01-01 19:56:00,22.8,12.8,29.91,NNW,339,0.0,0.0,65,0.00,,,0.00,WUHU216DAVISWMX,2013-01-02 00:56:00,
2013-01-01 20:01:00,22.6,13.0,29.90,NNW,339,0.0,0.0,66,0.00,,,0.00,WUHU216DAVISWMX,2013-01-02 01:01:00,
2013-01-01 20:06:00,22.3,12.7,29.91,NNW,339,1.0,2.0,66,0.00,,,0.00,WUHU216DAVISWMX,2013-01-02 01:06:00,
2013-01-01 20:11:00,22.3,13.1,29.91,NNW,339,2.0,2.0,67,0.00,,,0.00,WUHU216DAVISWMX,2013-01-02 01:11:00,
2013-01-01 20:16:00,22.1,12.9,29.91,NNW,339,0.0,2.0,67,0.00,,,0.00,WUHU216DAVISWMX,2013-01-02 01:16:00,
2013-01-01 20:21:00,22.0,12.4,29.91,NNW,339,0.0,2.0,66,0.00,,,0.00,WUHU216DAVISWMX,2013-01-02 01:21:00,
2013-01-01 20:26:00,22.1,13.2,29.91,NNW,339,0.0,2.0,68,0.00,,,0.00,WUHU216DAVISWMX,2013-01-02 01:26:00,
2013-01-01 20:31:00,21.8,12.2,29.91,East,92,0.0,3.0,66,0.00,,,0.00,WUHU216DAVISWMX,2013-01-02 01:31:00,
2013-01-01 20:36:00,21.5,12.3,29.90,East,92,2.0,3.0,67,0.00,,,0.00,WUHU216DAVISWMX,2013-01-02 01:36:00,
2013-01-01 20:41:00,21.4,11.5,29.91,North,0,1.0,3.0,65,0.00,,,0.00,WUHU216DAVISWMX,2013-01-02 01:41:00,
2013-01-01 20:46:00,21.4,11.5,29.91,North,0,1.0,3.0,65,0.00,,,0.00,WUHU216DAVISWMX,2013-01-02 01:46:00,
2013-01-01 20:51:00,21.4,11.2,29.91,NNW,332,1.0,5.0,64,0.00,,,0.00,WUHU216DAVISWMX,2013-01-02 01:51:00,
2013-01-01 20:56:00,21.4,10.8,29.91,NW,325,2.0,5.0,63,0.00,,,0.00,WUHU216DAVISWMX,2013-01-02 01:56:00,
2013-01-01 21:01:00,21.5,10.9,29.91,NW,319,1.0,5.0,63,0.00,,,0.00,WUHU216DAVISWMX,2013-01-02 02:01:00,
2013-01-01 21:06:00,21.6,10.6,29.91,NNW,341,3.0,5.0,62,0.00,,,0.00,WUHU216DAVISWMX,2013-01-02 02:06:00,
2013-01-01 21:11:00,21.4,10.8,29.91,NNW,341,0.0,4.0,63,0.00,,,0.00,WUHU216DAVISWMX,2013-01-02 02:11:00,
2013-01-01 21:16:00,21.4,11.5,29.91,NNW,341,0.0,3.0,65,0.00,,,0.00,WUHU216DAVISWMX,2013-01-02 02:16:00,
2013-01-01 21:21:00,21.3,11.4,29.91,NNW,341,0.0,1.0,65,0.00,,,0.00,WUHU216DAVISWMX,2013-01-02 02:21:00,
2013-01-01 21:27:00,21.0,11.5,29.91,NNW,341,0.0,1.0,66,0.00,,,0.00,WUHU216DAVISWMX,2013-01-02 02:27:00,
2013-01-01 21:32:00,20.7,10.1,29.92,North,354,0.0,3.0,63,0.00,,,0.00,WUHU216DAVISWMX,2013-01-02 02:32:00,
2013-01-01 21:37:00,20.6,10.7,29.92,North,354,0.0,3.0,65,0.00,,,0.00,WUHU216DAVISWMX,2013-01-02 02:37:00,
2013-01-01 21:42:00,20.4,10.9,29.92,North,354,0.0,1.0,66,0.00,,,0.00,WUHU216DAVISWMX,2013-01-02 02:42:00,
2013-01-01 21:47:00,19.9,10.1,29.92,North,354,0.0,2.0,65,0.00,,,0.00,WUHU216DAVISWMX,2013-01-02 02:47:00,
2013-01-01 21:52:00,19.8,9.6,29.92,North,354,0.0,2.0,64,0.00,,,0.00,WUHU216DAVISWMX,2013-01-02 02:52:00,
2013-01-01 21:57:00,19.6,10.1,29.92,North,354,0.0,2.0,66,0.00,,,0.00,WUHU216DAVISWMX,2013-01-02 02:57:00,
2013-01-01 22:02:00,19.5,9.7,29.92,North,354,0.0,0.0,65,0.00,,,0.00,WUHU216DAVISWMX,2013-01-02 03:02:00,
2013-01-01 22:07:00,19.0,9.2,29.93,North,354,2.0,2.0,65,0.00,,,0.00,WUHU216DAVISWMX,2013-01-02 03:07:00,
2013-01-01 22:12:00,19.0,9.6,29.93,North,354,2.0,2.0,66,0.00,,,0.00,WUHU216DAVISWMX,2013-01-02 03:12:00,
2013-01-01 22:17:00,18.8,9.4,29.93,North,354,2.0,2.0,66,0.00,,,0.00,WUHU216DAVISWMX,2013-01-02 03:17:00,
2013-01-01 22:22:00,18.6,9.2,29.93,NNW,348,2.0,5.0,66,0.00,,,0.00,WUHU216DAVISWMX,2013-01-02 03:22:00,
2013-01-01 22:27:00,18.6,9.2,29.94,NNW,347,1.0,5.0,66,0.00,,,0.00,WUHU216DAVISWMX,2013-01-02 03:27:00,
2013-01-01 22:32:00,18.4,9.3,29.94,NNW,348,3.0,3.0,67,0.00,,,0.00,WUHU216DAVISWMX,2013-01-02 03:32:00,
2013-01-01 22:37:00,18.5,8.7,29.94,NNW,334,8.0,8.0,65,0.00,,,0.00,WUHU216DAVISWMX,2013-01-02 03:37:00,
2013-01-01 22:42:00,18.7,8.2,29.95,NW,314,3.0,8.0,63,0.00,,,0.00,WUHU216DAVISWMX,2013-01-02 03:42:00,
2013-01-01 22:47:00,18.8,8.0,29.95,NNW,330,5.0,7.0,62,0.00,,,0.00,WUHU216DAVISWMX,2013-01-02 03:47:00,
2013-01-01 22:52:00,18.9,8.1,29.95,NNW,333,2.0,5.0,62,0.00,,,0.00,WUHU216DAVISWMX,2013-01-02 03:52:00,
2013-01-01 22:57:00,19.0,7.8,29.96,NW,320,3.0,7.0,61,0.00,,,0.00,WUHU216DAVISWMX,2013-01-02 03:57:00,
2013-01-01 23:02:00,19.0,8.2,29.95,West,264,3.0,7.0,62,0.00,,,0.00,WUHU216DAVISWMX,2013-01-02 04:02:00,
2013-01-01 23:07:00,18.9,7.7,29.95,NW,304,4.0,7.0,61,0.00,,,0.00,WUHU216DAVISWMX,2013-01-02 04:07:00,
2013-01-01 23:12:00,18.8,7.2,29.95,NNW,332,2.0,7.0,60,0.00,,,0.00,WUHU216DAVISWMX,2013-01-02 04:12:00,
2013-01-01 23:17:00,18.8,8.0,29.95,NNW,332,0.0,7.0,62,0.00,,,0.00,WUHU216DAVISWMX,2013-01-02 04:17:00,
2013-01-01 23:22:00,18.8,8.3,29.95,West,273,0.0,3.0,63,0.00,,,0.00,WUHU216DAVISWMX,2013-01-02 04:22:00,
2013-01-01 23:27:00,18.6,8.5,29.95,West,273,0.0,3.0,64,0.00,,,0.00,WUHU216DAVISWMX,2013-01-02 04:27:00,
2013-01-01 23:32:00,18.5,8.4,29.95,West,273,0.0,2.0,64,0.00,,,0.00,WUHU216DAVISWMX,2013-01-02 04:32:00,
2013-01-01 23:37:00,18.4,8.3,29.95,West,273,0.0,1.0,64,0.00,,,0.00,WUHU216DAVISWMX,2013-01-02 04:37:00,
2013-01-01 23:42:00,18.1,8.0,29.95,West,272,0.0,0.0,64,0.00,,,0.00,WUHU216DAVISWMX,2013-01-02 04:42:00,
2013-01-01 23:47:00,17.9,7.5,29.96,West,272,0.0,0.0,63,0.00,,,0.00,WUHU216DAVISWMX,2013-01-02 04:47:00,
2013-01-01 23:52:00,17.7,7.6,29.95,West,272,0.0,1.0,64,0.00,,,0.00,WUHU216DAVISWMX,2013-01-02 04:52:00,
2013-01-01 23:57:00,17.5,7.4,29.96,West,273,1.0,1.0,64,0.00,,,0.00,WUHU216DAVISWMX,2013-01-02 04:57:00,